カタログに戻る

ARIANE 2 DEB

運用中GTO
NORAD 33574·DEBRIS·🇫🇷 France

打ち上げ Jan 27, 1989 から Guiana Space Centre

Loading…

TLE

経年Source: Space-Track

元期: Sep 14, 2026, 19:04 UTC

1 33574U 89006BS  26257.79460102 -.00000399  00000-0 -40590-2 0  9999
2 33574   8.1743 107.7891 7124803  10.9440 217.7302  2.29514457171632

AllMySatでARIANE 2 DEBをリアルタイム追跡

Download on the App Store